Flag for Mexico

Past Weather in Colombia, Nuevo León, Mexico — Yesterday and Last 2 Weeks

Now
84 °F

Clear.


Feels Like: 90 °F
Forecast: 108 / 78 °F
Wind: 16 mph from South

Location: Laredo International Airport

Current Time: Jul 12, 2020 at 2:49:26 am

Latest Report: Jul 12, 2020 at 1:56 am


Visibility: 10 mi

Pressure: 29.90 "Hg

Humidity: 67%

Dew Point: 72 °F

Location of ColombiaLocation

Past Weather in Colombia — Graph

°F

Colombia Temperature Yesterday

Maximum temperature yesterday: 106 °F (at 3:56 pm)
Minimum temperature yesterday: 78 °F (at 6:56 am)
Average temperature yesterday: 92 °F

High & Low Weather Summary for the Past Weeks

 TemperatureHumidityPressure
High108 °F (Jul 10, 4:56 pm)94% (Jun 28, 5:56 am)30.00 "Hg (Jun 28, 5:56 am)
Low76 °F (Jul 3, 5:56 am)20% (Jul 5, 5:56 pm)29.68 "Hg (Jun 28, 6:56 pm)
Average89 °F61%29.84 "Hg
* Reported Jun 27 12:56 am — Jul 12 12:56 am, Colombia. Weather by CustomWeather, © 2020

Note: Actual official high and low records may vary slightly from our data, if they occured in-between our weather recording intervals... More about our weather records

Colombia Weather History for the Previous 24 Hours

Scroll right to see more
 ConditionsComfort  
Time TempWeatherWind HumidityBarometerVisibility
12:56 am
Sun, Jul 12
87 °FClear.17 mph59%29.91 "Hg10 mi
11:56 pm
Sat, Jul 11
89 °FClear.15 mph63%29.92 "Hg10 mi
10:56 pm93 °FClear.13 mph50%29.92 "Hg10 mi
9:56 pm96 °FClear.15 mph37%29.90 "Hg10 mi
8:56 pm99 °FClear.13 mph34%29.89 "Hg10 mi
7:56 pm102 °FSunny.14 mph30%29.88 "Hg10 mi
6:56 pm105 °FSunny.13 mph25%29.87 "Hg10 mi
5:56 pm106 °FSunny.15 mph22%29.87 "Hg10 mi
4:56 pm106 °FSunny.16 mph23%29.89 "Hg10 mi
3:56 pm106 °FSunny.13 mph23%29.91 "Hg10 mi
2:56 pm104 °FSunny.12 mph27%29.93 "Hg10 mi
1:56 pm101 °FSunny.12 mph32%29.96 "Hg10 mi
12:56 pm98 °FSunny.12 mph38%29.98 "Hg10 mi
11:56 am94 °FSunny.6 mph48%30.00 "Hg10 mi
10:56 am92 °FSunny.8 mph54%30.00 "Hg10 mi
9:56 am88 °FSunny.8 mph63%30.00 "Hg10 mi
8:56 am84 °FSunny.10 mph74%29.99 "Hg10 mi
7:56 am80 °FSunny.12 mph85%29.97 "Hg10 mi
6:56 am78 °FSunny.12 mph87%29.95 "Hg10 mi
5:56 am79 °FClear.13 mph84%29.93 "Hg10 mi
4:56 am79 °FClear.10 mph84%29.93 "Hg10 mi
3:56 am81 °FClear.15 mph79%29.95 "Hg10 mi
2:56 am82 °FClear.13 mph77%29.95 "Hg10 mi
Weather by CustomWeather, © 2020

See weather overview